{"data":{"norad_id":68614,"epoch":"2026-09-19T23:52:11.406144Z","epoch_age_seconds":87286,"freshness":"FRESH","line1":"1 68614U 26073N   26262.99457646  .00012077  00000+0  37577-3 0  9999","line2":"2 68614  97.2848 101.0250 0001366  98.3242 261.8156 15.33449564 25660","mean_motion":15.33449564,"eccentricity":0.0001366,"inclination_deg":97.2848,"raan_deg":101.025,"arg_perigee_deg":98.3242,"mean_anomaly_deg":261.8156,"bstar":0.00037577,"rev_number":2566,"period_min":93.905925164161,"perigee_km":464.59475040195,"apogee_km":466.46444011577,"semimajor_km":6843.6665952589,"source":"CELESTRAK","updated_at":"2026-09-20T09:00:43.945026Z"}}